Location: Cheyres
(46.8153°N, 6.7877°E)
Time: 12:02:59
(UTC+00:00)

Cosmos 1328 Rocket - Pass Details

Date: 24 September 2021
Orbit: 601 x 627 km, 82.5° (Epoch: 18 October)

Event Time Altitude Azimuth Distance (km) Brightness Sun altitude
Exits shadow 04:28:30 13° 268° (W) 1,747 5.2 -10.0°
Maximum altitude 04:30:08 16° 293° (WNW) 1,609 5.2 -9.7°
Drops below altitude 10° 04:32:48 10° 332° (NNW) 1,961 5.9 -9.3°
Sets 04:35:49 0° 354° (N) 2,867 7.0 -8.8°
